Alexandria, LA

4:04 PM CDT on May 29, 2017 (GMT -0500)
Alexandria International

Weather History for KAEX - January, 2012

Change the Weather History Date:

Sunday, January 15, 2012

  Actual Average Record
Temperature  
Mean Temperature 49 °F 49 °F  
Max Temperature 67 °F 59 °F 84 °F (1907)
Min Temperature 30 °F 39 °F 18 °F (1964)
Degree Days  
Heating Degree Days 16 16  
Month to date heating degree days 200 240  
Since 1 July heating degree days 1012 1029  
Moisture  
Dew Point 35 °F    
Average Humidity 65    
Maximum Humidity 100    
Minimum Humidity 29    
Precipitation  
Precipitation 0.00 in 0.16 in 1.80 in (1966)
Month to date precipitation 1.08 2.27  
Year to date precipitation 1.08 2.27  
Snow  
Snow 0.00 in - T in (1944)
Month to date snowfall 0.0  
Since 1 July snowfall 0.0  
Snow Depth 0.00 in    
Sea Level Pressure  
Sea Level Pressure 30.36 in    
Wind  
Wind Speed 5 mph (SSE)    
Max Wind Speed 15 mph    
Max Gust Speed 20 mph    
Visibility 10 miles    
Events      
T = Trace of Precipitation, MM = Missing Value Source: NWS Daily Summary

Daily Weather History Graph

Daily Weather History Graph

Search for Another Location

Airport or City:

Trip Planner

Search our weather history database for the weather conditions in past years. The results will help you decide how hot, cold, wet, or windy it might be!

Date:

Astronomy

Jan. 15, 2012 Rise Set
Actual Time 7:09 AM CST 5:29 PM CST
Civil Twilight 6:43 AM CST 5:55 PM CST
Nautical Twilight 6:13 AM CST 6:25 PM CST
Astronomical Twilight 5:44 AM CST 6:54 PM CST
Moon No Moon Rise 10:58 AM CST (1/15)
Length of Visible Light 11h 12m
Length of Day
10h 19m
Waning Gibbous, 57% of the Moon is Illuminated
Jan 15
Waning Gibbous
Jan 16
Last Quarter
Jan 23
New
Jan 30
First Quarter
Feb 7
Full

Hourly Weather History & Observations

Time (CST) Temp. Windchill Dew Point Humidity Pressure Visibility Wind Dir Wind Speed Gust Speed Precip Events Conditions
12:53 AM 43.0 °F - 35.1 °F 74% 30.37 in 10.0 mi Calm Calm - N/A   Clear
1:53 AM 37.0 °F - 32.0 °F 82% 30.37 in 10.0 mi Calm Calm - N/A   Clear
2:53 AM 33.1 °F - 30.0 °F 89% 30.37 in 10.0 mi Calm Calm - N/A   Clear
3:53 AM 32.0 °F - 30.2 °F 93% 30.35 in 10.0 mi Calm Calm - N/A   Clear
4:53 AM 30.9 °F - 30.0 °F 96% 30.38 in 10.0 mi Calm Calm - N/A   Clear
5:53 AM 30.9 °F - 28.9 °F 92% 30.38 in 10.0 mi Calm Calm - N/A   Clear
6:53 AM 32.0 °F - 30.0 °F 92% 30.40 in 8.0 mi Calm Calm - N/A   Clear
7:53 AM 32.0 °F - 30.0 °F 92% 30.43 in 7.0 mi Calm Calm - N/A   Clear
8:53 AM 41.0 °F 39.0 °F 37.9 °F 89% 30.44 in 9.0 mi SE 3.5 mph - N/A   Clear
9:53 AM 48.9 °F - 41.0 °F 74% 30.46 in 10.0 mi Calm Calm - N/A   Clear
10:53 AM 55.0 °F - 41.0 °F 59% 30.44 in 10.0 mi ESE 4.6 mph - N/A   Clear
11:53 AM 60.1 °F - 39.0 °F 46% 30.41 in 10.0 mi SSE 8.1 mph - N/A   Clear
12:53 PM 62.1 °F - 36.0 °F 38% 30.37 in 10.0 mi SSE 5.8 mph - N/A   Clear
1:53 PM 64.0 °F - 37.9 °F 38% 30.34 in 10.0 mi SE 9.2 mph - N/A   Clear
2:53 PM 66.9 °F - 34.0 °F 30% 30.32 in 10.0 mi SE 12.7 mph - N/A   Clear
3:53 PM 64.9 °F - 34.0 °F 32% 30.32 in 10.0 mi SSE 10.4 mph - N/A   Clear
4:53 PM 62.1 °F - 36.0 °F 38% 30.31 in 10.0 mi SSE 10.4 mph - N/A   Clear
5:53 PM 57.9 °F - 37.9 °F 47% 30.30 in 10.0 mi SSE 8.1 mph - N/A   Clear
6:53 PM 53.1 °F - 39.9 °F 61% 30.30 in 10.0 mi SSE 6.9 mph - N/A   Clear
7:53 PM 55.9 °F - 34.0 °F 44% 30.31 in 10.0 mi SSE 8.1 mph - N/A   Mostly Cloudy
8:53 PM 55.9 °F - 28.0 °F 34% 30.32 in 10.0 mi SSE 8.1 mph - N/A   Overcast
9:53 PM 55.9 °F - 34.0 °F 44% 30.31 in 10.0 mi SSE 9.2 mph - N/A   Overcast
10:53 PM 55.0 °F - 37.9 °F 53% 30.31 in 10.0 mi SSE 8.1 mph - N/A   Overcast
11:53 PM 55.9 °F - 39.9 °F 55% 30.30 in 10.0 mi SSE 12.7 mph - N/A   Overcast